User: anonymous   Login
Location: Unspecified
(0.0000°N, 0.0000°E)
Time: 04:11:41
(UTC+00:00)
Language:

STARLINK-34238 - Orbit

View from above orbital plane
View from above orbital plane
View from above satellite
View from above satellite

Ground track
Ground track

The orbit is defined by the following mean orbital elements,

1 65415U          26145.52092242 +.00000000 +00000-0 +33340-3 0 00004
2 65415  53.1591 235.7433 0001258  78.8821 281.2321 15.30198597    01
Epoch (UTC): 25 May 2026 12:30:07
Eccentricity: 0.0001258
inclination: 53.1591°
perigee height: 474 km
apogee height: 476 km
right ascension of ascending node: 235.7433°
argument of perigee: 78.8821°
revolutions per day: 15.30198597
mean anomaly at epoch: 281.2321°

The dashed part of the orbit path shows where the satellite is in the earth's shadow,  

DLR